STARLINK-11475, 62226

Orbit data source: Space-Track

STARLINK-11475, 62226 is a payload satellite owned by SpaceX/Seattle (US) in LEO that was launched on Thu, 05 Dec 2024 UTC via an FALCON 9 launch vehicle from the Air Force Western Test Range (AFWTR). Payloads include a variety of satellites, spacecraft, and rockets equipped with specific instruments for various scientific and technological missions. These include communications satellites like Starlink; space stations such as the ISS; scientific satellites like the Hubble; Earth observation satellites from companies like Planet Labs, Umbra, and HawkEye 360; GPS; miniature CubeSats for education and research; and military/defense satellites.

Loading next visibility...
STARLINK-11475 details
Identifier
62226, 2024-231J
Orbit
LEO
Last TLE update15 hours ago
Origin
Flag of USSpaceX/Seattle (US)
ManufacturerSpaceX/Seattle
MissionOperational spacecraft
Bus & MotorSTARLINK V2M, Unknown motor
Mass730 kg wet, ~700 kg dry
Launch date (UTC)
2024-12-05 (2 months ago)
Launch vehicle
FALCON 9
Launch site
Air Force Western Test Range (AFWTR)
Object type
Payload
Rocket body
Debris
Shape & HBRUnknown
Radar Cross SectionLarge (>1 m²)

Expand to show TLE details & history

TLE from 15 hours ago
0 STARLINK-11475
1 62226U 24231J   25025.18717247 -.00000443  00000-0  12060-5 0  9997
2 62226  53.1580 314.8857 0001274  74.5849 285.5310 15.69706292  9256
Epoch: 2025-01-25T04:29Z
Definitive object data (Epoch: 2025-01-25T04:29:31.701Z)
Latitude0.00002°
Longitude122.76403°
Altitude360.422 km
Speed7.694 km/s
True Right ascension20h 59m 32s
True Declination0° 00' 00"
Sunlit
Object was in daylight at TLE epoch
Visualization TLE readout
Latitude-46.45112°
Longitude68.07338°
Altitude376.213 km
Speed7.683 km/s
Apparent Right ascension12h 54m 17s
Apparent Declination-64° 39' 39"
Sunlit
Object is in daylight
Visualization observer readout
Local Sidereal Time20:50:51
Azimuth213.749° SW
Elevation-47.712°
Doppler factor1
Orbital elements
Apogee altitude360.857 km
Perigee altitude359.14 km
Semi-major axis6,738.135 km
Eccentricity0.0001274
Inclination53.158°
RAAN314.8857°
Arg. of periapsis74.5849°
True anomaly285.51693°
Mean anomaly285.531°
Eccentric anomaly285.52397°
Mean motion3.92404 °/min
BSTAR0.000001206
Orbital period91.74 mins
Loading maneuver chart data...
Loading historical data...
Loading historical data...
Loading historical data...
Loading historical data...
Loading historical data...
Loading historical data...
Loading historical data...

STARLINK-11475 Visibility forecast

Observer location: undefined°, undefined

Span
Click to sort rows by Start time (UTC) header in descending order
Start Az.
Max El. time (UTC)
Max El. Az.
Max El.
End time (UTC)
End Az.
5 mins2025-01-25 21:27:54.320Z205.093° SW2025-01-25 21:30:54.320Z114.804° SE31.289°2025-01-25 21:32:54.320Z67.054° ENE
|